Simultaneous Nadir Overpasses (SNOs) Predictions

Prediction of SNOs between AQUA and METOP-B Satellite Orbit:

Table of predicted SNOs for the next 14.0 days since TLE Epoch: 9/9/2016
Index Date (AQUA) Time (AQUA) Lat,Lon (AQUA) SZA (AQUA ) Date (METOP-B) Time (METOP-B) Lat,Lon (METOP-B) SZA (METOP-B ) Distance(km) Time Diff (sec)
1 09/10/2016 13:57:39 -73.68, 145.04 110.98 09/10/2016 13:56:46 -73.67, 144.98 110.99 2.43 53
2 09/10/2016 14:47:07 73.77, -47.50 69.12 09/10/2016 14:47:23 73.75, -47.51 69.10 2.15 16
3 09/10/2016 15:36:45 -74.40, 118.68 110.19 09/10/2016 15:37:51 -74.44, 121.54 110.23 85.34 66
4 09/13/2016 09:31:53 -73.71,-148.58 109.88 09/13/2016 09:31:09 -73.69,-148.58 109.91 2.95 44
5 09/13/2016 10:21:21 73.74, 18.98 70.17 09/13/2016 10:21:47 73.76, 18.93 70.18 2.51 26
6 09/16/2016 05:06:07 -73.70, -82.13 108.82 09/16/2016 05:05:33 -73.70, -82.14 108.81 0.57 34
7 09/16/2016 05:55:36 73.79, 85.32 71.29 09/16/2016 05:56:11 73.78, 85.37 71.28 2.03 35
8 09/19/2016 00:40:21 -73.71, -15.70 107.73 09/19/2016 00:39:57 -73.72, -15.69 107.71 0.97 24
9 09/19/2016 01:29:50 73.80, 151.75 72.38 09/19/2016 01:30:35 73.79, 151.82 72.38 2.20 45
10 09/21/2016 19:24:58 73.19,-115.81 72.82 09/21/2016 19:23:50 73.13,-117.95 72.81 69.02 68
11 09/21/2016 20:14:34 -73.73, 50.70 106.61 09/21/2016 20:14:20 -73.74, 50.76 106.61 2.02 14
12 09/21/2016 21:04:02 73.77,-141.74 73.44 09/21/2016 21:04:59 73.76,-141.85 73.44 3.20 57




NCC Satellite Simultaneous Nadir Overpasses (SNOs) Prediction Service
